x

Middle Nomad (46004) Wave Buoy

1:00am - Wed 25th May 2016 All times are PDT. -7 hours from GMT.

  • Sig Wave height 5.2ft
  • Peak Period 8s
  • Wind
    13mph, 18mph gusts
  • Sea Temp 49°f
  • Air Temp 47°f
  • Sea Pressure 1026.7mb
  • Middle Nomad
  • Middle Nomad

More Historic Weather Station data

Upgrade to MSW Pro to gain access to the past 30 days of data for over 8000 Wavebouys and Weather Stations around the globe.

Join Pro

Comparision Forecast

View Surf forecast
   
Wed 05/25 1:00am 5ft 8s 13 18 mph 1026.7mb 49f 47f
12:00am 5.5ft 7s 13 18 mph 1026.4mb 49f 47f
Tue 05/24 11:00pm 5.5ft 10s 16 18 mph 1026.4mb 49f 47f
10:00pm 5.5ft 9s 13 18 mph 1026.1mb 49f 48f
9:00pm 6ft 7s 13 18 mph 1025.6mb 49f 48f
8:00pm 5.5ft 8s 16 18 mph 1025.4mb 49f 48f
7:00pm 5ft 8s 13 18 mph 1025.2mb 49f 48f
6:00pm 5.5ft 9s 13 18 mph 1025.1mb 49f 47f
5:00pm 5.5ft 8s 18 20 mph 1025.3mb 49f 47f
4:00pm 5.5ft 8s 16 18 mph 1025.3mb 49f 48f
3:00pm 5.5ft 7s 16 18 mph 1025.1mb 49f 48f
2:00pm 5ft 8s 18 20 mph 1025.1mb 49f 47f
1:00pm 5.5ft 8s 13 18 mph 1024.8mb 49f 48f
12:00pm 5ft 8s 16 18 mph 1024.5mb 49f 48f
11:00am 6ft 8s 13 18 mph 1024.5mb 49f 47f
10:00am 6ft 8s 13 18 mph 1024.3mb 49f 47f
9:00am 5.5ft 8s 16 18 mph 1024.1mb 49f 47f
8:00am 6ft 8s 18 22 mph 1023.7mb 49f 46f
7:00am 6ft 8s 16 20 mph 1023.4mb 49f 47f
6:00am 6ft 8s 18 20 mph 1023.3mb 49f 47f
5:00am 6ft 8s 13 18 mph 1023.3mb 49f 47f
4:00am 6.5ft 8s 13 20 mph 1023.3mb 49f 47f
3:00am 6.5ft 8s 18 20 mph 1023.2mb 49f 47f
2:00am 7ft 8s 18 22 mph 1023.5mb 49f 47f
1:00am 6.5ft 8s 18 20 mph 1023.4mb 49f 48f
12:00am 7ft 8s 16 22 mph 1023.5mb 49f 48f
Mon 05/23 11:00pm 7.5ft 8s 18 22 mph 1023.7mb 49f 48f
10:00pm 7.5ft 8s 18 22 mph 1023.5mb 49f 48f
9:00pm 7ft 8s 18 22 mph 1023.4mb 49f 48f
8:00pm 7.5ft 7s 20 25 mph 1023.3mb 49f 48f
7:00pm 7.5ft 8s 18 22 mph 1023.2mb 49f 48f
6:00pm 7.5ft 8s 18 22 mph 1023.2mb 49f 48f
5:00pm 7ft 8s 20 25 mph 1023.3mb 49f 48f
4:00pm 8ft 8s 18 22 mph 1023.4mb 49f 48f
3:00pm 8.5ft 9s 18 22 mph 1023.3mb 49f 48f
2:00pm 8.5ft 9s 18 25 mph 1023.3mb 49f 47f
1:00pm 8.5ft 9s 20 25 mph 1023.2mb 49f 47f
12:00pm 8ft 9s 20 27 mph 1023.1mb 49f 47f
11:00am 9ft 7s 20 25 mph 1023.3mb 49f 47f
10:00am 9.5ft 9s 20 25 mph 1023.4mb 49f 47f
9:00am 9ft 8s 22 27 mph 1023.3mb 49f 47f
8:00am 9.5ft 9s 20 25 mph 1023.1mb 49f 47f
7:00am 9.5ft 8s 22 29 mph 1022.7mb 49f 48f
6:00am  -   -  22
mph
1022.7mb - 48f
5:00am 9ft 8s 20 27 mph 1022.6mb 49f 48f
4:00am 9ft 8s 22 27 mph 1022.6mb 49f 47f
3:00am 8.5ft 8s 20 27 mph 1022.7mb 49f 48f
2:00am 9ft 9s 20 25 mph 1022.6mb 49f 49f
1:00am 9ft 8s 20 25 mph 1022.8mb 49f 49f
12:00am 9.5ft 7s 20 27 mph 1022.8mb 49f 49f
Sun 05/22 11:00pm 10.5ft 8s 20 25 mph 1022.8mb 49f 49f
10:00pm 9.5ft 7s 20 27 mph 1022.7mb 48f 49f
9:00pm 9.5ft 8s 22 27 mph 1022.2mb 48f 49f
8:00pm 10ft 7s 22 27 mph 1022.1mb 48f 49f
7:00pm 9.5ft 8s 22 27 mph 1022.1mb 48f 49f
6:00pm 10ft 8s 22 27 mph 1021.9mb 48f 49f
5:00pm 9.5ft 9s 22 29 mph 1021.6mb 49f 49f
4:00pm 10ft 8s 22 27 mph 1021.4mb 49f 49f
3:00pm 10.5ft 8s 22 27 mph 1021.1mb 48f 49f
2:00pm 10ft 8s 25 31 mph 1020.5mb 48f 49f
1:00pm 10.5ft 8s 25 29 mph 1020.2mb 48f 48f
12:00pm 11ft 8s 25 31 mph 1020mb 48f 49f
11:00am 11ft 8s 25 31 mph 1020mb 48f 48f
10:00am 11ft 8s 25 29 mph 1019.8mb 48f 48f
9:00am 11ft 8s 25 31 mph 1019.4mb 48f 48f
8:00am 11ft 8s 27 34 mph 1018.9mb 48f 48f
7:00am 11ft 7s 27 34 mph 1018.5mb 48f 48f
6:00am 9.5ft 8s 27 31 mph 1018.1mb 48f 48f
5:00am 9.5ft 7s 25 36 mph 1017.8mb 48f 48f
4:00am 9.5ft 7s 27 34 mph 1017.5mb 48f 48f
3:00am 10ft 7s 27 34 mph 1017.4mb 48f 47f
2:00am 9ft 7s 25 31 mph 1017.3mb 48f 48f
1:00am 9ft 7s 25 31 mph 1017.4mb 48f 48f
12:00am 9ft 8s 27 31 mph 1017.1mb 48f 48f
Sat 05/21 11:00pm 9ft 7s 27 31 mph 1017.1mb 49f 48f
10:00pm 9ft 6s 25 29 mph 1016.7mb 49f 48f
9:00pm 8ft 6s 27 31 mph 1016.5mb 49f 48f
8:00pm 8ft 6s 25 31 mph 1016.5mb 49f 48f
7:00pm 7.5ft 6s 27 34 mph 1016.4mb 49f 48f
6:00pm 7ft 5s 25 31 mph 1016.2mb 49f 49f
5:00pm 6ft 5s 22 27 mph 1016.2mb 49f 49f
4:00pm 6ft 5s 22 25 mph 1016.2mb 49f 49f
3:00pm 6ft 8s 18 22 mph 1016.4mb 49f 49f
2:00pm 6ft 5s 18 22 mph 1016.5mb 49f 49f
1:00pm 5.5ft 7s 22 27 mph 1016.5mb 49f 49f
12:00pm 5.5ft 8s 20 25 mph 1016.8mb 49f 48f
11:00am 5.5ft 8s 16 18 mph 1016.8mb 49f 49f
10:00am 6ft 8s 16 18 mph 1017mb 48f 49f